CAPE
0 0 0 0 0 0 0 0 0 0 0 0 0 0 0 0 0 0 0 0 59 394 1402 1088 726 752 580 797 499 465 203 73 70 129 258 371 177 290 103 188 379 488 763 979 939
0 0 0 0 0 0 0 0 0 0 0 0 0 0 0 0 0 0 0 0 107 702 1396 841 732 822 707 580 569 340 6 195 204 324 266 188 286 191 352 282 332 554 962 841 847
0 0 0 0 0 0 0 0 0 0 0 0 0 0 0 0 0 0 0 0 8 564 444 82 209 675 614 449 175 6 184 367 530 698 549 308 252 251 334 177 253 612 806 803 797
0 0 0 0 0 0 0 0 0 0 0 0 0 0 0 0 0 5 0 0 122 1042 126 125 310 312 93 203 283 189 236 555 566 712 571 658 468 217 492 97 211 440 626 721 702
0 0 0 0 0 0 0 0 0 0 0 0 0 0 0 0 0 12 0 240 507 970 52 61 15 139 127 175 200 239 335 502 605 670 766 745 594 293 402 62 127 241 388 455 472
0 0 0 0 0 0 0 0 0 0 0 0 0 0 0 0 2 0 0 386 155 92 11 0 0 0 90 32 16 55 284 446 573 768 737 723 818 650 553 121 80 131 129 191 196
0 0 0 0 0 0 0 0 0 0 0 0 0 0 0 0 31 3 101 130 2 2 0 0 0 0 24 67 0 156 432 488 649 738 735 720 704 831 646 424 203 268 214 117 148
0 0 0 0 0 0 0 0 0 0 0 0 0 0 0 0 47 18 84 18 1 13 0 0 0 1 76 18 4 187 220 527 504 744 918 511 694 772 773 627 541 316 383 324 113
0 0 0 0 0 0 0 0 0 0 0 0 0 0 0 0 49 2 13 0 3 12 0 0 0 8 45 48 15 21 13 33 441 637 707 860 725 841 842 754 593 401 503 454 249
1 1 1 1 0 0 0 0 0 0 0 0 0 0 0 0 0 0 0 0 0 0 0 0 0 33 162 107 8 0 0 10 148 465 668 909 844 756 802 801 705 423 390 495 447
1 2 1 0 0 0 0 0 0 0 0 0 0 0 0 0 0 0 0 0 0 0 0 0 15 122 231 0 0 0 0 25 17 252 620 822 806 774 653 774 733 509 292 350 417
1 2 2 0 0 0 0 0 0 0 0 0 0 0 0 0 0 0 0 0 0 0 0 38 77 228 1 0 0 0 0 2 10 0 321 489 833 864 741 678 816 660 426 221 347
2 2 1 0 0 0 0 0 0 0 0 0 0 0 0 0 0 0 0 0 0 0 0 76 72 5 0 0 0 0 0 0 0 0 299 254 502 905 868 717 781 771 578 212 159
2 2 0 0 0 0 0 0 0 0 0 0 0 0 0 0 0 0 0 0 0 0 0 9 36 2 0 0 0 0 0 0 0 0 194 63 0 310 883 754 674 772 725 329 54
2 0 0 0 0 0 0 0 0 0 0 0 0 0 0 0 0 0 0 0 0 0 0 0 0 0 0 0 0 0 0 0 0 0 1 184 200 638 649 830 772 650 686 589 125
0 0 0 0 0 0 0 0 0 0 6 0 0 0 0 0 0 0 0 0 0 0 0 0 0 0 0 0 0 0 0 0 0 0 19 13 35 0 590 701 825 839 691 615 320
0 0 0 0 0 0 0 0 1 52 0 0 0 0 0 0 0 0 0 0 0 0 0 0 0 0 0 0 0 0 0 0 1 20 12 62 0 16 263 357 697 902 843 711 559
0 0 0 0 0 0 0 0 84 0 0 0 0 0 0 0 0 0 0 0 0 0 0 0 0 0 0 0 0 0 0 0 7 20 6 0 154 16 460 380 548 831 920 802 749
0 0 0 0 0 0 0 158 10 0 0 0 0 0 0 0 0 0 0 0 0 0 0 0 0 0 0 0 0 0 0 0 0 0 0 1 281 273 735 691 521 657 888 933 812
0 0 0 0 0 0 0 0 0 0 0 0 11 1 0 0 0 0 0 0 0 0 0 0 0 0 0 0 0 0 0 0 0 3 11 1 10 1 447 1008 992 700 930 1032 900
0 0 0 0 0 0 19 0 0 0 0 7 3 7 10 0 0 0 0 4 0 0 0 0 0 0 0 0 1 0 0 0 2 1 9 9 370 282 363 976 1236 1185 1111 1101 1042
0 3 0 0 0 2 0 0 0 0 0 0 0 11 57 11 0 1 2 57 0 0 0 0 0 1 1 0 0 0 22 18 34 63 16 0 475 756 762 732 1354 1776 1528 1559 1251
19 0 0 0 35 0 0 0 0 0 0 0 0 0 0 11 50 90 15 0 0 4 2 0 0 5 1 0 0 0 0 0 0 0 0 18 368 1082 1317 1497 1712 2198 2162 1624 1654
0 3 0 0 0 0 0 0 0 0 0 0 0 0 0 0 0 27 6 0 0 0 0 0 0 1 40 77 25 0 0 0 0 5 22 58 501 1047 1429 1763 1885 2696 3392 1880 1649
0 0 0 8 0 0 0 0 0 0 0 0 0 0 0 0 0 1 0 0 0 0 30 0 4 27 1 10 5 22 16 9 2 3 16 6 12 1122 1590 1747 1966 2331 2929 3744 2446
0 0 0 0 0 0 0 0 0 0 0 0 0 0 0 0 0 25 0 0 0 12 0 2 0 7 0 2 0 2 10 8 10 0 0 0 348 1213 1723 1962 2093 2112 2209 2948 2941
0 0 0 0 0 0 0 0 0 0 0 0 0 0 0 0 0 0 0 0 0 0 0 0 0 34 15 25 19 7 5 18 29 69 32 89 913 854 1117 1521 1937 1905 1768 2056 1762
CIN
0 0 0 0 0 0 0 0 0 0 0 0 0 0 0 0 0 0 0 0 -76 -320 -178 -65 -68 -69 -121 -71 -38 -6 -69 -3 -16 -7 -3 -2 -2 -4 -47 -29 -5 -5 -19 -3 -3
0 0 0 0 0 0 0 0 0 0 0 0 0 0 0 0 0 0 0 0 -160 -303 -129 -45 -35 -67 -9 -9 -17 -52 -28 -8 -7 -7 -3 -3 -4 -6 -3 -8 -10 -2 -3 -4 -2
0 0 0 0 0 0 0 0 0 0 0 0 0 0 0 0 0 0 0 0 -198 -285 -77 -81 -60 -17 -8 -4 -21 -27 -2 -4 -1 -2 -2 -2 -2 -5 -2 -22 -25 -21 -14 -5 -2
0 0 0 0 0 0 0 0 0 0 0 0 0 0 0 0 0 -48 0 0 -418 -188 -107 -77 -27 -12 -11 -5 -3 -10 -39 -3 -11 -13 -3 -4 -2 -4 -3 -68 -64 -52 -25 -7 -2
0 0 0 0 0 0 0 0 0 0 0 0 0 0 0 0 0 -178 0 -515 -335 -191 -121 -68 -30 -13 -6 -5 -4 -6 -16 -33 -18 -32 -2 -3 -3 -4 -2 -123 -117 -90 -71 -43 -8
0 0 0 0 0 0 0 0 0 0 0 0 0 0 0 0 -120 0 0 -323 -205 -151 -136 0 0 0 -5 -14 -19 -36 -27 -28 -39 -19 -2 -2 -3 -3 -3 -77 -160 -141 -145 -138 -89
0 0 0 0 0 0 0 0 0 0 0 0 0 0 0 0 -379 -174 -354 -233 -154 -152 0 0 0 0 -60 -4 0 -38 -32 -43 -52 -30 -21 -2 -10 -4 -3 -10 -81 -71 -85 -153 -143
0 0 0 0 0 0 0 0 0 0 0 0 0 0 0 0 -419 -448 -321 -309 -309 -203 0 0 0 -37 -74 -33 -48 -14 -7 -2 -27 -29 -7 -10 -2 -5 -11 -2 -5 -47 -30 -57 -149
0 0 0 0 0 0 0 0 0 0 0 0 0 0 0 0 -445 -329 -398 -158 -238 -258 0 0 0 -93 -67 -25 -18 -6 -11 -6 -20 -28 -16 -16 -7 -10 -13 -4 -7 -26 -15 -28 -64
0 0 0 0 0 0 0 0 0 0 0 0 0 0 0 0 0 0 0 0 0 0 0 0 0 -97 -18 -13 -20 0 -1 -7 -4 -27 -23 -9 -6 -31 -15 -2 -3 -26 -40 -18 -16
0 0 0 0 0 0 0 0 0 0 0 0 0 0 0 0 0 0 0 0 0 0 0 0 -136 -12 -6 0 0 0 0 -6 -3 -26 -12 -2 -2 -22 -39 -5 -4 -21 -59 -53 -23
0 0 0 0 0 0 0 0 0 0 0 0 0 0 0 0 0 0 0 0 0 0 0 -77 -62 -11 -106 0 0 0 -1 -4 -16 0 -15 -7 -2 -30 -55 -41 -6 -18 -30 -71 -29
0 0 0 0 0 0 0 0 0 0 0 0 0 0 0 0 0 0 0 0 0 0 0 -40 -28 -59 0 0 0 0 0 0 0 0 -9 -9 -26 -1 -53 -52 -15 -10 -15 -58 -67
0 0 0 0 0 0 0 0 0 0 0 0 0 0 0 0 0 0 0 0 0 0 0 -117 -73 -168 0 0 0 0 0 0 0 0 -6 -13 0 -67 -42 -53 -57 -26 -11 -38 -134
0 0 0 0 0 0 0 0 0 0 -1 0 0 0 0 0 0 0 0 0 0 0 0 0 0 0 0 0 0 0 0 0 0 0 -9 -6 -31 -2 -27 -34 -54 -46 -44 -45 -108
0 0 0 0 0 0 0 0 0 0 -2 0 0 0 0 0 0 0 0 0 0 0 0 0 0 0 0 0 0 0 0 0 0 0 -29 -3 -47 -69 -17 -7 -29 -43 -39 -45 -71
0 0 0 0 0 0 0 0 -33 -21 0 0 0 0 0 0 0 0 0 0 0 0 0 0 0 0 0 0 0 0 0 0 -2 -10 -48 -21 0 -37 -4 -6 -5 -21 -33 -42 -56
0 0 0 0 0 0 0 0 -7 0 0 0 0 0 0 0 0 0 0 0 0 0 0 0 0 0 0 0 0 0 0 -1 -14 -12 -3 -3 -64 -7 -8 -4 -23 -7 -21 -31 -43
0 0 0 0 0 0 0 -30 -11 0 0 0 0 0 0 0 0 0 0 0 0 0 0 0 0 0 0 0 0 0 0 0 0 0 0 -7 -27 -42 -4 -5 -19 -3 -6 -29 -42
0 0 0 0 0 0 0 0 0 0 0 0 -4 -1 0 0 0 0 0 0 0 0 0 0 0 0 0 0 0 0 0 0 0 -9 -4 -34 -38 -69 -17 -26 -8 -3 -2 -6 -20
0 0 0 0 0 0 -13 0 0 0 0 -19 -4 -13 -6 0 0 0 0 -121 0 0 0 0 0 0 0 0 -2 0 0 0 -3 -4 -11 -6 -21 -64 -57 -47 -33 -18 -3 -3 -15
0 -2 0 0 0 -3 0 0 0 0 0 0 -5 -53 -19 -68 0 -4 -40 -79 0 0 0 0 0 -7 -1 0 0 0 -8 -3 -6 -8 -8 -2 -38 -74 -77 -59 -52 -45 -34 -14 -3
-132 0 0 0 -25 0 0 0 0 0 0 0 0 0 0 -60 -36 -16 -76 0 0 -120 -30 0 0 -4 -11 0 0 0 0 0 0 0 -4 -13 -10 -62 -69 -74 -58 -42 -32 -33 -33
0 -2 0 0 0 0 0 0 0 0 0 0 0 0 0 0 0 -53 -29 0 0 0 0 0 0 -4 -53 -13 -6 0 0 0 0 -10 -26 -29 -9 -10 -48 -104 -131 -84 -22 -45 -51
0 0 0 -53 0 0 0 0 0 0 0 0 0 0 0 0 0 -1 0 0 0 0 -27 0 -2 -6 -3 -32 -33 -8 -8 -5 -13 -5 -10 -19 -3 -10 -99 -150 -169 -105 -51 -7 -25
0 0 0 0 0 0 0 0 0 0 0 0 0 0 0 0 0 -80 0 0 0 -92 0 -1 0 -22 -1 -2 0 -4 -3 -4 -5 -1 -1 -1 -5 -14 -55 -108 -75 -118 -125 -30 -51
0 0 0 0 0 0 0 0 0 0 0 0 0 0 0 0 0 0 0 0 0 0 0 0 0 -19 -5 -5 -7 -4 -2 -4 -4 -15 -18 -4 -9 -11 -36 -70 -53 -61 -102 -81 -131
Wind_Speed
24 23 24 24 22 20 18 16 15 12 11 11 12 13 14 13 14 17 17 19 20 24 23 23 22 20 19 16 17 8 14 21 18 12 21 22 23 22 24 25 22 18 23 23 26
26 26 25 26 25 23 21 19 18 16 14 13 13 14 15 15 15 16 17 18 22 25 24 23 21 21 19 17 14 16 18 21 20 18 20 21 22 24 23 22 22 23 24 21 32
28 28 27 27 27 26 24 22 20 18 16 15 14 15 16 16 16 16 17 19 23 26 22 16 18 15 18 19 19 8 19 21 18 11 20 20 22 22 22 23 24 26 28 27 35
30 29 29 29 29 28 27 25 24 21 18 17 17 17 17 18 14 14 18 21 24 24 19 19 17 11 20 18 19 23 20 20 19 12 20 19 20 21 17 23 24 28 28 30 34
31 31 31 30 30 30 29 28 27 25 21 18 18 18 9 14 12 12 18 21 23 21 20 17 12 11 15 20 21 20 21 20 19 20 22 20 20 21 22 24 25 28 29 31 33
32 32 32 31 31 30 30 29 28 27 25 21 18 18 10 11 11 13 18 21 21 21 19 17 13 11 13 16 15 21 21 21 19 20 21 21 20 21 22 24 25 26 28 28 32
33 33 33 33 32 31 30 30 29 28 25 23 10 9 8 11 8 13 17 21 19 20 18 18 16 14 11 17 18 20 21 20 18 18 18 22 22 20 21 24 25 26 27 27 28
33 33 33 33 32 31 30 30 28 25 22 15 8 7 10 10 5 11 17 19 22 20 21 19 18 16 16 15 17 16 15 18 18 18 16 11 22 20 22 23 24 25 27 26 26
33 32 32 32 31 30 29 28 23 19 13 7 8 7 7 8 8 10 16 15 17 22 22 21 19 19 17 14 14 9 18 17 18 17 17 19 18 20 22 23 23 25 26 27 26
33 32 31 31 30 29 29 24 15 16 11 11 19 10 9 3 7 7 19 23 11 23 22 22 21 19 19 12 11 8 11 18 18 17 17 18 14 21 22 23 22 24 25 27 27
32 31 30 28 28 26 23 12 12 12 6 14 9 15 7 6 4 5 6 8 23 20 25 21 23 21 18 14 14 13 14 19 19 19 19 18 18 21 21 22 21 22 23 25 26
30 28 27 26 26 24 16 13 15 17 14 12 14 16 13 3 3 4 3 5 14 24 25 24 26 19 16 17 16 15 12 18 18 18 17 17 18 18 20 21 21 21 21 22 24
23 23 24 24 23 12 9 15 16 18 14 9 11 12 8 9 4 3 10 15 10 27 27 28 4 14 21 18 17 10 14 12 13 15 14 16 12 19 18 19 18 18 20 21 23
23 24 23 21 14 12 10 12 18 16 14 9 10 14 12 16 13 2 15 2 17 25 27 28 27 20 25 22 19 14 17 15 13 15 12 13 11 24 20 18 18 19 19 20 21
22 22 15 13 16 12 13 16 17 16 9 7 5 8 9 14 4 11 13 25 26 23 23 26 25 28 28 26 20 21 19 17 16 17 18 10 15 19 20 17 18 19 17 15 19
18 4 14 14 13 10 15 17 18 10 12 10 10 9 9 23 15 8 1 27 23 23 22 31 16 23 26 21 23 23 21 18 16 16 16 16 14 22 14 16 18 20 21 19 17
10 15 16 15 7 17 17 19 15 18 12 10 5 3 14 16 13 3 4 17 2 13 12 17 28 23 29 27 26 24 22 19 14 13 12 10 18 16 16 10 18 20 21 21 21
12 19 18 16 16 17 19 19 15 13 11 13 6 13 25 17 12 21 2 26 26 23 20 16 7 13 19 29 28 24 26 23 17 21 7 14 18 19 12 18 15 18 19 19 20
16 18 17 18 19 19 17 16 11 11 13 14 14 17 19 19 19 15 16 24 15 2 25 18 16 13 18 27 29 27 24 25 25 22 24 11 22 18 17 20 18 18 18 19 22
14 15 18 17 20 18 17 5 13 12 14 17 17 18 15 12 18 18 9 14 19 21 24 20 15 12 12 17 28 30 25 22 21 17 22 22 17 9 14 18 17 15 16 16 22
16 16 19 19 18 16 18 12 6 10 12 12 12 16 11 13 20 13 11 12 16 18 21 26 25 10 12 21 15 8 26 25 20 20 22 18 15 18 18 18 17 17 12 13 16
14 14 19 19 14 12 19 12 15 11 13 12 12 13 13 16 16 13 14 14 17 18 14 23 21 14 7 14 20 22 20 22 23 11 20 23 15 17 19 19 18 18 17 16 11
10 17 17 16 12 19 19 8 11 11 14 14 14 14 16 15 15 17 15 14 17 16 17 15 23 14 19 9 13 25 17 24 24 22 22 23 10 17 19 19 19 19 19 18 18
13 12 14 15 14 12 15 14 16 14 14 15 17 19 20 19 20 16 13 14 16 16 17 20 28 30 16 21 15 12 18 19 25 26 21 15 10 18 20 20 21 22 21 19 16
14 14 15 13 14 15 13 15 14 8 12 17 9 17 20 21 22 22 21 19 7 17 20 22 26 22 23 19 21 16 17 19 24 27 25 28 25 20 22 22 22 21 19 19 17
15 16 16 16 14 19 13 16 18 18 17 17 19 19 20 21 21 19 19 23 23 20 23 25 27 22 27 19 26 27 28 25 25 26 25 28 19 18 17 19 20 19 19 18 17
16 14 16 14 11 13 15 17 18 20 15 18 21 21 21 19 21 26 28 29 28 28 27 27 28 27 28 27 21 30 30 32 24 24 24 23 15 15 18 19 19 18 18 17 16
Wind_Direction
298 296 299 302 295 288 283 277 271 259 247 235 229 216 207 204 192 128 120 100 112 117 122 110 125 125 133 159 171 284 218 93 68 93 70 91 76 103 84 96 101 78 104 109 114
299 297 298 301 298 291 287 282 278 269 257 243 232 225 213 207 148 144 96 97 107 120 125 115 122 132 124 134 158 67 126 93 49 54 61 77 79 99 96 102 95 78 96 104 126
300 298 298 300 302 299 291 285 278 269 258 249 237 229 217 204 129 83 108 108 120 132 134 154 149 169 144 116 98 167 352 45 37 342 94 74 90 117 96 99 109 108 114 118 146
303 300 299 300 302 301 298 289 283 270 256 249 241 233 221 147 79 71 106 115 129 145 148 152 159 186 101 124 101 77 86 48 64 17 101 93 102 100 103 93 104 114 119 128 152
307 305 303 304 306 305 302 295 289 279 258 241 235 238 127 113 43 74 109 119 132 145 142 152 181 200 160 111 93 92 91 100 57 142 140 101 114 97 87 97 103 116 123 141 157
309 307 304 304 306 305 304 298 292 284 264 239 215 260 80 121 16 88 116 125 133 146 150 168 191 196 163 123 123 92 94 96 92 114 117 121 113 121 106 111 114 121 132 136 156
310 309 308 305 305 303 302 296 290 286 278 264 354 28 90 352 14 105 119 135 134 156 164 197 207 189 192 128 113 98 96 100 97 103 118 133 111 131 115 120 123 132 138 135 143
316 314 310 307 305 304 303 296 290 291 290 305 349 20 360 347 19 105 131 142 169 168 210 224 212 204 178 144 127 125 132 78 91 105 126 122 111 117 123 128 135 136 142 137 137
318 318 315 311 307 302 298 292 297 307 324 351 342 337 351 349 98 115 131 127 141 177 210 226 215 199 200 164 181 155 37 44 78 119 98 160 70 117 127 136 138 143 143 146 142
320 318 317 313 309 304 293 293 318 310 316 312 285 316 327 359 102 110 148 238 117 184 193 195 195 198 182 231 130 205 259 6 52 116 123 144 59 122 133 144 139 144 147 153 151
318 316 315 313 309 308 312 338 332 325 299 302 311 300 337 358 57 101 106 268 245 164 184 167 195 174 228 270 225 175 144 45 43 101 128 129 112 130 138 148 138 142 148 155 156
305 298 289 289 296 301 325 328 321 306 304 284 285 280 286 64 333 87 79 304 151 173 178 195 198 248 256 231 199 179 162 68 56 111 154 127 151 126 138 146 143 146 147 152 156
279 278 289 310 318 351 357 324 309 293 299 302 278 275 281 275 309 110 129 154 269 183 179 190 248 287 228 236 204 108 275 195 235 173 139 83 228 150 141 140 142 143 151 152 158
290 298 322 321 26 21 12 327 287 282 299 307 272 268 265 256 277 45 139 342 266 194 183 194 232 264 227 233 247 336 285 222 193 227 98 90 159 180 140 135 141 147 150 152 155
290 295 28 41 357 32 341 284 266 256 316 323 279 277 255 249 315 276 263 237 232 242 250 248 250 230 218 232 276 272 267 223 222 223 219 140 3 109 117 124 140 149 147 145 153
282 140 70 69 82 337 263 250 231 301 321 315 276 252 241 239 263 293 351 222 235 250 260 222 282 256 242 270 255 262 244 217 196 189 251 274 346 231 68 120 142 152 156 153 146
247 101 104 155 137 165 199 197 237 289 292 290 259 205 238 248 264 297 97 144 210 283 252 171 209 225 229 233 219 239 231 234 179 160 56 146 358 147 10 181 127 150 152 151 153
135 100 131 164 174 175 174 179 226 260 273 253 260 234 220 238 268 241 317 175 196 245 256 285 279 162 169 214 221 242 256 259 297 289 153 352 313 308 322 22 93 114 138 145 148
118 110 133 130 162 174 181 178 232 239 224 223 226 227 234 242 251 258 257 234 286 88 246 284 288 311 271 225 228 219 237 260 263 259 249 262 94 10 352 359 30 79 121 139 152
137 134 112 166 161 173 174 260 203 223 212 211 228 235 248 257 249 251 285 292 281 269 255 276 296 304 316 224 233 235 269 240 238 293 268 278 56 7 313 342 340 8 99 120 153
140 125 107 164 165 161 125 215 281 237 239 257 249 247 268 263 248 272 296 322 297 288 268 244 251 312 305 251 265 310 217 243 271 272 272 293 335 353 346 345 330 325 350 95 131
163 123 111 137 158 160 81 206 214 279 263 264 270 272 278 261 267 288 299 319 299 292 296 252 269 297 311 296 264 255 273 248 243 324 291 271 326 352 346 341 335 323 316 292 98
150 58 134 160 155 100 121 3 268 263 257 266 279 287 280 282 284 281 298 311 300 303 290 278 254 289 299 323 293 257 283 263 263 276 294 281 330 349 346 342 337 325 315 308 293
222 34 70 169 198 205 138 183 83 282 289 269 253 226 218 232 245 276 293 303 302 308 294 274 239 255 328 286 305 284 286 289 272 266 295 333 358 333 331 330 325 320 312 316 315
277 344 298 341 347 304 290 212 238 282 257 283 0 280 263 230 227 224 254 262 325 289 250 237 239 280 280 294 285 307 290 294 282 288 289 290 308 323 328 328 321 321 321 318 322
296 283 252 312 347 271 19 336 295 295 271 301 260 272 264 251 266 269 281 257 257 283 258 235 235 266 246 286 259 263 264 280 284 290 293 293 310 324 334 333 326 321 321 320 316
308 251 218 352 250 179 338 325 317 304 338 306 282 260 237 296 281 261 264 255 252 258 259 260 243 254 235 248 285 252 249 257 286 296 292 300 324 333 329 332 329 325 324 319 325